Flag for U.S.A. Weather past 2 weeks in Monterey, California, U.S.A.

Now
65 °F

Low clouds.


Feels Like: 65 °F
Forecast: 64 / 72 °F
Wind: 5 mph from Northwest

Location: Monterey Peninsula Airport

Current Time: Aug 29, 2015 at 1:18:35 AM

Latest Report: Aug 28, 2015 at 11:54 PM


Visibility: 10 mi

Pressure: 29.98 "Hg

Humidity: 91%

Dew point: 62 °F

Location of MontereyLocation

Historic Weather in Monterey — Graph

°F

Monterey temperature yesterday

Maximum temperature yesterday: 83 °F (at 3:54 PM)
Minimum temperature yesterday: 62 °F (at 5:54 AM)
Average temperature yesterday: 70 °F

Past Weeks' High & Low Weather Summary

 TemperatureHumidityPressure
High83 °F (Aug 28, 3:54 PM)97% (Aug 26, 5:54 AM)30.11 "Hg (Aug 26, 5:54 AM)
Low55 °F (Aug 26, 6:54 AM)26% (Aug 27, 6:54 PM)29.87 "Hg (Aug 17, 4:02 AM)
Average66 °F71%29.99 "Hg
* Reported Aug 13 11:54 PM — Aug 28 11:54 PM, Monterey, Weather by CustomWeather, © 2015

Note: Actual official high and low records may vary slightly from our data, if they occured in-between our weather recording intervals... More about our weather records

Advertising

Monterey weather history for previous 24 hours

 ConditionsComfort  
Time TempWeatherWind HumidityBarometerVisibility
11:54 PM
Fri, Aug 28
65 °FLow clouds.5 mph91%29.98 "Hg10 mi
10:54 PM66 °FPassing clouds.No wind87%29.97 "Hg10 mi
9:54 PM68 °FClear.No wind78%29.97 "Hg10 mi
8:54 PM70 °FClear.6 mph68%29.96 "Hg10 mi
7:54 PM69 °FSunny.6 mph70%29.94 "Hg10 mi
6:54 PM68 °FSunny.7 mph73%29.94 "Hg10 mi
5:54 PM76 °FSunny.9 mph54%29.94 "Hg10 mi
4:54 PM78 °FSunny.6 mph56%29.92 "Hg10 mi
3:54 PM83 °FSunny.7 mph44%29.92 "Hg10 mi
2:54 PM78 °FSunny.5 mph54%29.93 "Hg10 mi
1:54 PM75 °FSunny.5 mph60%29.94 "Hg10 mi
12:54 PM79 °FSunny.7 mph44%29.94 "Hg10 mi
11:54 AM74 °FSunny.3 mph57%29.96 "Hg10 mi
10:54 AM72 °FSunny.6 mph57%29.97 "Hg10 mi
9:54 AM70 °FSunny.7 mph59%29.96 "Hg10 mi
8:54 AM74 °FSunny.3 mph48%29.95 "Hg10 mi
7:54 AM71 °FSunny.No wind44%29.94 "Hg10 mi
6:54 AM63 °FClear.No wind58%29.95 "Hg10 mi
5:54 AM62 °FClear.No wind60%29.95 "Hg10 mi
4:54 AM63 °FClear.3 mph60%29.95 "Hg10 mi
3:54 AM63 °FClear.3 mph68%29.96 "Hg9 mi
2:54 AM63 °FClear.No wind68%29.98 "Hg10 mi
1:54 AM64 °FClear.6 mph68%29.99 "Hg10 mi
Weather by CustomWeather, © 2015

See weather overviewHow to use our weather pages